Tracking 18945 objects as of 21-Jan-2018
HD Live streaming from Space Station
objects crossing your sky now

FENGYUN 1C DEB

Track FENGYUN 1C DEB now!
10-day predictions


NORAD ID: 30526
Int'l Code: 1999-025AJQ
Perigee: 856.4 km
Apogee: 1,332.9 km
Inclination: 99.4 °
Period: 107.0 minutes
Semi major axis: 7465 km
RCS: 0.0303 m2 (small)
Launch date: May 10, 1999
Source: People's Republic of China (PRC)
Launch site: Taiyaun Space Center, China (TSC)

Note: This is SATELLITE DEBRIS
aabbcc
Your satellite tracking list
Your tracking list is empty




NASA's NSSDC Master Catalog

Two Line Element Set (TLE):
1 30526U 99025AJQ 18019.98164107  .00000171  00000-0  26410-3 0  9991
2 30526  99.4089 205.6581 0319142 244.0112 112.7827 13.45869446539193
Source of the keplerian elements: AFSPC